Total_Precipitation_Accumulation
0.98 1.11 1.18 1.37 1.64 1.81 1.81 1.62 1.15 0.80 0.75 0.94 1.28 2.72 3.79 3.36 1.46 0.93 0.61 0.72 0.64 0.82 1.14 0.92 0.48 0.44 0.54 0.41 0.61 0.95 1.15 0.67 0.14 0.04 0.03 0.03 0.02 0.02 0.02 0.04 0.09 0.16 0.19 0.19 0.58
1.21 1.39 1.86 2.18 2.26 2.25 1.93 1.66 1.00 0.70 0.70 0.83 1.36 2.64 4.03 2.86 1.29 0.86 0.98 1.35 1.18 1.45 1.28 1.20 0.58 0.71 0.66 0.63 0.94 1.46 1.35 0.40 0.09 0.07 0.04 0.07 0.03 0.01 0.03 0.04 0.57 0.63 0.34 0.56 0.67
1.30 1.53 1.84 2.76 3.42 3.88 3.27 1.59 0.82 0.63 0.63 0.78 1.19 3.24 3.99 2.39 1.46 0.58 0.75 1.28 1.60 1.61 1.17 0.93 0.79 1.12 0.73 0.78 0.76 1.12 1.11 0.29 0.29 0.26 0.26 0.16 0.07 0.02 0.06 0.06 0.19 1.70 0.96 0.84 0.84
1.12 1.37 1.70 1.67 2.56 3.09 2.58 1.28 1.13 0.79 0.62 0.79 1.62 3.61 3.48 1.75 0.83 0.30 0.83 1.03 1.41 1.75 1.26 1.50 1.24 1.38 0.73 0.47 0.44 0.61 0.63 0.43 0.47 0.47 0.48 0.19 0.13 0.09 0.15 0.09 0.14 0.52 1.32 1.43 1.29
1.00 1.16 1.27 1.65 2.16 2.39 1.74 1.38 1.29 1.14 0.98 1.09 2.07 3.57 2.61 1.76 0.60 0.44 0.83 0.66 1.15 1.64 0.97 1.32 1.21 1.13 0.63 0.32 0.47 0.49 0.58 0.57 0.71 0.62 0.47 0.33 0.21 0.13 0.11 0.12 0.14 0.55 0.83 1.32 1.84
0.89 0.87 0.89 1.16 1.45 1.62 1.38 1.31 1.27 1.08 1.08 1.35 2.32 2.87 1.94 1.35 0.54 0.58 0.60 0.71 0.84 1.09 0.89 1.22 1.06 1.04 0.69 0.44 0.49 0.30 0.56 0.73 0.99 0.79 0.86 0.47 0.25 0.19 0.07 0.12 0.30 0.76 1.66 0.92 1.30
0.84 0.83 0.75 1.05 1.27 1.34 1.29 1.23 1.13 0.93 1.13 1.51 2.05 2.12 1.75 1.20 0.80 0.84 0.41 0.80 1.16 0.86 0.94 0.97 1.02 1.28 0.85 0.52 0.35 0.38 0.78 1.05 1.10 1.24 1.23 0.89 0.72 0.22 0.05 0.13 0.51 1.02 1.72 2.31 1.30
0.89 0.78 0.71 0.89 0.93 0.94 0.90 0.84 0.91 1.10 1.39 1.90 2.37 1.80 2.07 1.19 0.75 0.53 0.29 0.47 0.86 1.13 1.10 1.20 0.84 1.08 0.79 0.53 0.53 0.78 1.08 1.06 0.93 1.30 1.92 1.56 0.81 0.19 0.10 0.18 0.39 0.78 1.19 1.55 2.76
0.92 0.91 0.97 1.05 0.97 1.01 1.05 1.09 0.99 0.94 1.43 2.12 2.12 1.69 1.99 1.45 0.70 0.25 0.26 0.43 0.79 1.56 1.99 2.11 1.74 1.28 0.76 0.86 0.87 0.75 0.70 0.80 0.76 0.77 1.88 1.76 1.02 0.40 0.22 0.16 0.22 0.45 0.88 1.55 2.10
1.09 1.36 1.29 0.97 1.10 1.16 1.13 1.98 2.01 1.02 1.61 1.97 1.75 1.73 1.71 1.34 0.56 0.28 0.35 0.58 1.02 1.98 2.71 2.91 2.73 1.59 0.66 0.83 0.78 0.84 0.40 0.44 0.70 0.62 1.10 1.62 0.99 0.72 0.41 0.26 0.16 0.35 0.62 0.99 1.84
1.17 1.20 0.97 0.94 0.93 0.82 1.02 1.78 1.96 2.11 2.32 1.89 1.04 0.79 0.94 0.94 0.58 0.55 0.54 0.77 1.65 2.39 2.46 2.53 2.09 1.31 0.37 0.23 0.25 0.21 0.33 0.26 0.54 0.72 0.54 0.90 0.90 0.74 0.51 0.53 0.23 0.30 0.38 0.63 1.16
0.94 0.88 0.83 0.88 1.00 1.19 1.33 1.58 1.29 1.75 2.66 1.85 0.78 0.61 0.64 0.58 0.84 0.71 0.85 1.49 1.82 2.21 1.99 2.18 1.34 0.79 0.63 0.34 0.31 0.29 0.31 0.27 0.42 0.71 0.63 0.58 0.67 0.50 0.51 0.38 0.32 0.27 0.49 0.53 0.79
0.81 0.77 0.80 0.95 1.03 1.40 1.30 1.01 1.01 1.12 2.05 2.28 1.29 1.07 0.85 0.58 0.89 0.78 1.15 1.54 1.63 1.53 1.24 1.32 0.67 0.40 0.62 0.55 0.47 0.28 0.27 0.21 0.41 0.47 0.43 0.49 0.60 0.45 0.38 0.29 0.19 0.17 0.41 0.66 0.63
0.90 0.96 1.04 1.17 1.35 1.02 1.27 0.94 0.83 1.14 1.69 2.01 1.23 1.16 0.65 1.07 1.26 0.57 1.63 1.59 1.70 1.35 1.03 1.18 0.70 0.47 0.46 0.77 0.43 0.34 0.15 0.25 0.52 0.65 0.56 0.46 0.69 0.49 0.31 0.30 0.22 0.21 0.23 0.54 0.92
1.29 1.09 0.93 1.28 1.31 1.16 0.86 0.64 0.87 1.50 1.82 1.42 1.07 0.75 0.89 0.88 0.66 0.79 1.30 1.20 1.09 1.08 1.06 0.96 0.61 0.70 0.52 0.79 0.41 0.48 0.19 0.25 0.43 0.76 1.16 0.45 0.81 0.64 0.44 0.43 0.48 0.42 0.37 0.48 0.69
1.25 1.18 1.07 1.05 0.98 0.98 0.84 0.61 1.28 1.68 2.25 2.04 1.51 1.31 0.78 0.56 0.53 0.97 1.32 0.99 0.91 0.95 1.00 0.59 0.44 0.88 0.75 0.59 0.55 0.43 0.47 0.47 0.71 1.07 1.65 0.56 0.80 1.10 1.02 1.07 0.94 0.46 0.45 0.60 0.68
1.21 1.41 1.31 0.79 0.89 0.85 1.31 1.13 1.53 1.28 1.21 1.46 1.17 0.57 0.40 0.52 0.83 1.15 1.22 0.79 1.12 1.57 1.45 1.24 0.99 0.84 0.76 0.99 1.04 0.75 1.04 1.76 1.80 2.02 1.05 0.60 0.90 1.36 1.15 0.93 0.89 0.66 0.74 0.89 0.88
1.42 1.45 1.47 1.01 0.94 0.99 1.80 1.29 1.22 0.87 0.98 0.82 0.41 0.39 0.50 0.39 0.57 0.75 0.98 0.50 0.31 0.48 0.79 0.97 1.41 1.19 0.78 0.87 1.22 1.00 1.02 1.56 1.66 1.07 0.90 0.63 1.65 2.32 1.65 1.31 1.14 0.92 1.10 1.44 1.62
1.78 1.97 1.74 1.48 1.20 1.32 1.48 1.22 1.04 0.95 0.94 0.47 0.32 0.37 0.40 0.18 0.28 0.53 0.43 0.24 0.15 0.16 0.64 0.50 0.78 0.58 0.77 0.62 0.83 0.88 0.93 0.87 1.54 0.80 0.86 0.74 1.39 2.07 1.91 1.77 1.18 1.58 1.68 1.73 2.01
2.35 2.66 1.63 1.35 1.47 1.46 1.32 1.06 0.64 0.41 0.28 0.18 0.29 0.14 0.10 0.06 0.12 0.12 0.18 0.08 0.16 0.14 0.28 0.48 0.84 0.96 0.85 0.78 0.66 0.62 0.55 0.99 1.68 1.46 0.99 0.67 0.87 2.57 2.55 2.02 1.81 1.91 1.87 1.86 2.03
2.38 2.51 1.68 1.75 2.08 2.06 1.56 1.13 0.45 0.18 0.15 0.15 0.10 0.07 0.03 0.08 0.16 0.29 0.37 0.18 0.18 0.24 0.27 0.66 1.23 1.09 1.08 0.81 0.59 0.78 0.88 0.64 0.99 1.04 1.10 0.78 1.89 2.79 2.39 1.94 1.56 1.51 1.48 1.52 1.53
2.26 2.06 1.93 2.35 2.58 1.83 1.09 0.78 0.47 0.16 0.17 0.15 0.13 0.07 0.15 0.20 0.21 0.21 0.18 0.19 0.13 0.15 0.38 0.51 1.10 0.95 0.67 0.20 0.22 0.38 0.45 0.43 1.27 1.01 0.78 0.92 1.73 1.85 1.76 1.49 1.12 0.87 0.58 0.43 0.38
2.20 1.95 2.78 1.58 1.14 0.76 0.49 0.45 0.30 0.12 0.18 0.26 0.22 0.16 0.19 0.20 0.24 0.14 0.08 0.05 0.02 0.06 0.36 0.68 1.40 1.07 0.78 0.54 0.65 0.97 0.51 0.55 1.00 1.60 1.21 0.92 1.32 0.65 0.54 0.38 0.27 0.15 0.12 0.11 0.15
2.31 2.17 3.82 2.50 0.64 0.27 0.54 0.57 0.38 0.16 0.18 0.27 0.29 0.18 0.18 0.12 0.09 0.20 0.04 0.03 0.02 0.05 0.30 1.05 1.21 1.09 0.98 0.83 1.05 0.93 0.41 0.65 1.43 1.70 0.61 0.44 0.26 0.13 0.15 0.05 0.04 0.06 0.08 0.08 0.08
1.90 1.12 1.00 1.10 0.59 0.23 0.53 0.55 0.49 0.31 0.22 0.23 0.23 0.09 0.25 0.41 0.18 0.09 0.07 0.14 0.09 0.06 0.30 0.93 1.40 1.32 0.57 0.42 0.78 0.73 0.46 0.56 1.16 0.72 0.81 0.35 0.16 0.11 0.10 0.08 0.08 0.09 0.08 0.06 0.07
1.28 0.94 0.36 0.23 0.16 0.26 0.34 0.38 0.42 0.44 0.48 0.36 0.31 0.20 0.31 0.39 0.29 0.45 0.44 0.43 0.36 0.23 0.33 0.73 1.17 0.87 0.40 0.26 0.44 0.59 0.30 0.43 0.63 0.47 0.40 0.20 0.21 0.09 0.08 0.07 0.07 0.18 0.11 0.09 0.08
1.12 0.87 0.77 0.61 0.33 0.30 0.21 0.23 0.36 0.53 0.46 0.22 0.29 0.46 0.32 0.15 0.26 0.25 0.21 0.16 0.19 0.22 0.34 0.70 0.87 1.10 0.85 0.42 0.66 0.72 0.38 0.40 0.51 0.39 0.29 0.25 0.23 0.06 0.06 0.12 0.28 0.48 0.12 0.05 0.03